Theta_e
311 311 310 310 310 310 309 309 308 308 308 308 308 309 311 311 311 311 310 309 309 309 310 310 310 310 310 310 310 310 310 310 310 312 313 314 314 313 312 314 316 318 315 317 332 338 336 336 337 342 346 348 349 349 352 351 353 353 358 359 354 357 358 356 357 355 355 356 357 358 357 358 357 357 356 353 351 350 351 349 346 345 343 344 344 344 344 344
311 311 311 310 310 310 310 310 309 309 308 308 308 308 309 310 311 311 311 311 309 309 310 310 310 310 311 311 310 310 310 310 310 313 316 314 312 312 312 313 317 317 314 325 337 335 334 336 339 345 348 349 350 350 351 351 354 354 356 356 354 359 359 357 356 356 356 355 357 357 356 358 358 357 355 353 353 352 350 348 347 344 345 345 344 344 345 345
311 311 311 311 311 311 311 311 311 311 309 308 308 308 308 309 311 311 311 311 310 310 309 310 311 310 311 310 311 311 310 311 314 320 321 315 311 312 313 312 317 316 316 331 337 332 333 335 340 346 347 349 349 350 351 353 356 355 355 355 356 357 356 359 359 357 357 357 357 357 357 358 357 355 355 355 353 352 349 348 348 346 346 345 344 345 345 346
312 312 312 312 312 313 313 313 313 312 312 310 309 307 308 308 309 310 312 311 311 310 309 310 310 311 311 310 311 310 311 315 324 330 326 317 312 312 313 313 318 316 320 336 335 330 332 333 342 346 347 350 349 350 352 355 356 356 355 355 357 356 355 358 359 357 357 358 357 357 357 356 355 354 355 354 352 352 350 349 348 346 345 345 345 344 344 345
313 312 313 313 313 314 313 314 314 314 313 312 311 309 308 308 308 310 311 311 312 311 310 310 310 311 311 311 312 310 313 319 326 332 326 317 313 312 312 313 318 316 324 337 333 330 331 333 343 346 347 349 350 351 352 355 354 354 355 356 357 354 355 358 358 357 357 357 357 358 356 354 354 354 354 351 350 352 349 349 348 345 344 344 344 344 344 344
313 313 313 314 314 314 314 314 315 315 314 313 312 311 309 307 308 309 310 311 312 311 310 309 310 311 310 311 310 310 316 320 327 332 327 318 313 312 312 313 317 317 327 336 331 329 330 333 343 347 349 350 350 351 352 354 353 353 354 356 357 356 358 360 358 357 357 357 357 357 355 354 355 355 353 350 350 351 348 347 347 344 343 344 343 344 344 343
313 313 314 314 314 315 315 315 315 315 315 314 313 312 310 308 308 308 309 311 312 312 310 310 310 310 311 311 310 314 319 322 330 329 323 319 314 312 312 314 316 318 328 333 329 330 329 333 343 348 349 349 350 351 350 352 354 353 353 356 358 358 360 360 359 358 357 357 357 356 354 356 357 356 355 353 351 349 347 346 346 344 343 343 342 342 343 343
313 313 314 314 315 315 315 315 316 316 315 315 314 312 311 309 308 308 309 310 311 312 310 310 310 311 311 310 315 323 322 325 330 325 320 320 315 311 312 314 315 320 328 330 329 329 328 333 343 347 349 348 348 348 346 349 355 354 352 355 356 357 358 358 358 358 358 358 357 355 355 358 356 356 357 353 351 348 346 346 345 343 342 342 342 341 342 343
313 314 315 315 315 315 315 315 316 316 316 316 314 312 310 309 308 308 309 310 311 311 310 311 310 311 311 309 319 326 323 326 326 321 320 319 316 313 311 313 317 324 328 327 328 327 326 333 342 347 349 348 347 343 342 350 355 354 352 355 355 354 357 358 358 358 358 359 357 355 356 356 355 356 356 352 349 348 346 345 344 343 343 342 341 341 342 343
313 314 315 315 315 315 315 315 316 317 316 314 312 310 309 308 308 308 309 310 311 311 311 311 311 311 310 312 321 325 324 326 325 324 320 315 316 314 313 317 322 327 327 324 326 325 326 333 342 348 349 347 344 340 343 351 354 355 353 356 355 354 356 357 359 358 357 358 356 355 356 355 356 356 355 351 348 348 347 345 344 344 343 342 341 341 342 342
314 314 315 315 315 315 315 315 316 316 313 311 309 309 308 308 308 308 309 311 311 311 311 310 311 311 310 316 324 323 321 324 327 326 318 315 318 317 319 322 324 327 325 324 326 324 326 333 343 348 346 344 342 340 345 348 351 355 354 356 357 357 356 357 359 358 357 356 354 355 357 356 354 354 355 351 348 348 347 346 344 344 343 342 342 342 342 343
314 314 315 315 315 315 315 316 316 315 312 309 309 308 308 308 308 309 310 311 311 311 311 310 311 310 312 320 324 319 319 323 327 324 318 319 320 321 324 323 324 327 325 325 325 324 326 333 344 348 345 342 339 339 345 350 351 355 356 355 356 357 358 359 360 357 357 357 355 356 356 355 354 354 355 350 348 349 347 346 345 344 343 342 343 343 344 343
314 315 315 315 315 315 315 316 317 315 311 308 309 308 308 308 309 311 311 312 311 311 310 311 311 310 316 324 321 316 319 324 325 322 320 321 320 322 323 322 324 327 326 326 325 325 329 336 343 347 346 341 337 336 340 348 351 354 356 356 355 355 356 359 359 357 357 357 358 357 351 353 356 355 355 350 348 349 347 346 345 344 344 343 344 343 344 345
314 315 315 315 315 314 315 316 317 315 310 309 310 311 311 311 312 313 314 314 314 315 313 312 310 312 321 325 317 316 320 324 324 321 320 320 319 320 322 323 325 326 326 325 325 327 331 335 340 345 344 340 337 335 335 344 350 351 355 356 354 352 353 357 356 356 356 356 359 357 349 353 358 355 355 352 349 349 347 345 345 344 344 344 344 343 344 345
314 315 315 315 315 315 316 317 317 314 312 314 316 316 317 317 316 315 316 316 316 317 315 314 311 315 326 324 316 319 323 325 324 321 321 320 318 319 321 324 324 325 324 323 325 327 328 332 338 343 342 339 336 334 334 341 347 350 350 350 351 350 353 357 356 357 357 355 358 356 351 354 356 355 356 353 350 348 347 346 345 345 344 344 343 343 344 344
314 315 315 315 315 315 316 318 317 316 315 318 318 318 318 319 319 317 318 318 317 316 316 321 320 318 326 323 317 321 325 327 324 322 322 321 320 319 321 323 323 324 323 322 323 323 325 330 338 341 341 340 335 335 336 336 343 352 350 345 348 350 352 355 355 357 356 355 357 356 353 354 355 356 356 355 352 349 348 346 345 345 345 345 343 343 344 344
314 315 315 315 315 315 317 318 318 317 318 318 317 317 317 318 319 318 320 319 316 314 315 322 323 321 324 319 318 324 327 328 324 322 322 321 322 320 320 321 322 323 322 322 321 321 323 328 337 339 340 340 336 335 334 331 336 346 349 344 346 350 348 350 354 355 355 355 356 355 355 355 354 356 356 356 355 352 350 348 346 345 344 345 344 344 345 345
314 315 315 315 315 316 318 318 317 318 318 317 317 317 316 316 318 319 320 317 315 317 318 318 318 321 321 316 320 325 326 327 325 324 323 322 323 320 319 320 321 322 322 322 321 320 322 328 336 338 339 338 337 335 330 331 335 340 346 342 342 347 346 349 352 353 354 355 356 353 354 356 356 356 357 356 357 354 352 350 346 344 344 345 345 345 346 346
314 315 315 315 315 316 318 318 317 317 317 318 317 317 320 320 319 318 320 320 321 324 324 319 319 321 319 318 323 324 325 327 326 326 324 323 322 321 320 319 320 322 322 322 321 321 322 327 332 334 338 338 337 335 331 338 338 340 349 343 341 347 347 350 352 352 354 355 356 354 353 357 356 356 357 356 356 354 353 351 348 344 344 345 345 345 346 347
314 315 315 315 315 316 318 318 318 318 318 318 318 320 325 327 324 322 323 325 325 323 321 319 320 320 319 321 323 322 324 326 326 326 325 323 322 322 322 319 320 321 323 323 320 321 322 324 328 332 338 340 338 337 333 339 337 336 348 345 343 347 347 352 353 351 354 353 354 355 354 356 355 354 356 357 356 354 353 353 350 346 345 345 345 346 348 348
314 315 315 315 315 317 318 319 318 318 319 318 318 323 326 323 322 322 322 325 322 318 319 319 319 321 321 322 322 322 324 325 326 326 324 323 322 322 322 320 319 319 322 324 321 323 322 321 325 332 338 339 337 336 333 334 335 335 342 346 346 346 348 355 354 349 352 355 354 355 355 357 357 355 355 356 356 353 353 354 352 348 346 345 345 347 348 349
315 315 315 315 316 317 318 319 319 318 319 318 319 324 323 319 320 320 320 323 320 317 318 318 318 320 321 321 322 324 325 325 325 325 323 322 321 322 323 322 319 319 321 323 322 322 321 320 325 332 337 337 335 333 332 332 334 338 336 340 342 343 348 353 355 351 349 355 355 354 353 354 357 357 356 356 355 353 352 353 353 349 347 346 345 347 348 348
315 315 315 316 316 317 317 318 319 319 318 319 321 324 321 319 320 320 320 323 321 317 317 319 319 320 321 321 322 323 325 326 325 324 322 321 321 322 323 323 320 320 321 322 323 321 319 321 325 333 336 334 332 330 331 331 331 337 335 332 335 341 344 346 352 355 348 351 354 353 352 353 355 357 359 357 356 355 355 354 353 351 348 348 346 346 349 349
315 315 315 316 316 318 319 318 319 319 318 319 322 322 320 320 320 321 322 323 319 317 319 319 320 321 321 322 322 323 325 326 325 324 321 320 321 321 321 324 322 320 321 321 323 323 322 323 327 333 336 333 331 331 331 331 330 333 335 333 333 339 341 342 350 355 348 349 353 352 350 352 356 358 360 359 358 358 357 354 354 353 349 348 346 345 349 349
315 315 316 316 317 318 318 318 320 321 321 321 322 322 321 320 321 322 323 323 318 318 319 319 320 321 321 322 322 324 325 325 325 324 321 321 322 321 321 323 322 320 321 321 322 323 324 328 329 331 334 332 332 333 331 331 329 328 332 334 335 337 338 341 349 352 348 345 350 351 345 347 356 359 359 359 358 356 355 353 353 354 352 349 348 347 348 349
315 315 316 316 317 317 318 321 322 320 321 322 322 322 321 321 322 322 324 322 317 318 321 319 320 320 320 322 322 324 325 325 326 324 321 321 321 322 322 322 322 322 321 322 323 322 325 330 332 331 333 333 333 332 332 332 328 324 329 335 335 333 336 337 341 347 343 341 348 350 344 345 354 358 358 358 357 355 354 355 354 355 355 352 349 348 348 348
315 315 316 316 317 316 319 322 321 320 322 322 322 321 321 322 322 322 324 320 314 317 320 319 319 320 320 322 323 323 322 323 325 324 322 322 322 323 323 322 322 322 323 323 319 320 325 329 330 332 332 332 332 331 331 333 327 324 329 334 334 333 333 335 334 338 341 344 349 351 345 345 350 355 356 355 356 357 356 355 355 356 356 354 351 349 349 348
315 315 316 316 317 317 318 319 319 322 323 321 321 321 321 322 321 323 324 317 315 319 319 319 320 320 320 322 323 323 323 324 324 323 323 322 323 324 324 323 322 323 325 321 317 322 328 328 328 330 330 329 331 331 331 332 329 327 329 330 333 333 332 333 332 332 337 342 343 347 346 344 345 350 355 355 355 358 357 354 355 356 354 354 353 350 349 348
315 315 316 317 317 318 318 318 319 321 321 321 321 321 322 322 322 326 323 316 316 318 319 320 320 320 322 323 323 324 325 324 323 323 324 322 323 325 324 324 324 323 325 322 321 325 328 328 328 328 327 327 329 331 331 330 330 330 329 329 331 332 332 332 332 331 332 333 336 342 344 342 344 349 353 355 354 356 358 356 355 355 354 355 354 352 349 348
315 315 316 317 318 319 318 319 321 321 321 320 320 321 322 323 324 323 318 315 317 318 319 320 320 321 322 322 322 324 324 324 325 324 324 324 324 325 325 325 324 324 325 324 323 326 328 328 329 327 326 327 327 330 331 330 331 330 329 329 330 330 332 333 332 332 332 331 333 341 343 340 343 348 352 355 355 354 357 357 355 354 355 356 355 352 349 347
315 316 317 317 318 319 319 321 323 321 320 319 320 322 323 325 325 319 315 317 318 318 319 320 320 321 322 322 322 322 323 324 325 324 324 324 324 324 325 324 324 324 323 322 322 325 327 326 327 327 326 327 327 328 331 330 330 330 329 328 328 328 330 331 332 332 331 331 332 340 349 344 337 343 350 354 354 352 354 355 354 353 355 356 355 353 350 347
316 317 317 317 318 319 319 321 321 319 319 320 321 323 325 324 321 315 315 317 316 317 319 321 321 321 322 322 322 322 322 323 325 325 324 323 322 324 324 323 324 322 318 318 320 322 325 326 326 326 326 327 326 326 328 327 328 329 328 326 323 325 329 329 330 331 330 331 333 342 350 347 340 343 349 351 350 351 353 353 353 354 354 355 355 354 351 349
316 317 317 318 319 319 319 319 319 318 319 321 322 325 325 320 315 315 317 316 315 317 320 320 320 320 321 321 321 321 321 322 323 324 324 324 323 323 323 324 324 321 319 319 318 318 321 324 325 324 325 326 325 324 322 323 325 327 326 323 322 324 329 331 330 330 330 329 333 344 344 340 341 346 349 350 349 351 352 352 354 354 354 355 354 355 352 350
316 317 318 319 318 319 319 318 319 318 319 322 324 325 322 316 315 317 318 317 317 318 319 319 319 319 320 320 320 321 320 320 322 323 323 323 323 323 323 324 325 323 323 320 318 317 316 319 323 323 323 325 325 324 323 323 324 326 328 327 323 323 328 330 328 327 329 327 328 336 335 333 339 345 349 349 348 350 350 350 353 354 355 355 354 356 354 351
317 318 318 319 320 319 318 318 319 317 319 323 326 323 318 315 316 317 317 318 319 318 318 319 318 318 318 319 320 321 320 319 321 323 323 322 322 323 324 324 324 324 324 320 319 319 316 318 323 324 324 324 323 324 325 324 322 324 328 326 323 325 328 328 326 325 327 326 326 330 331 336 345 348 351 350 348 348 348 349 353 354 355 355 355 355 355 353
319 321 321 323 324 322 318 317 318 317 320 325 324 319 317 317 318 318 318 319 319 319 318 317 318 317 316 317 319 320 320 320 321 321 322 323 323 323 323 323 323 324 323 321 320 320 316 318 323 324 324 325 324 324 324 324 321 322 324 322 325 330 330 325 323 325 326 326 328 330 332 339 344 343 347 349 347 347 346 348 353 354 353 352 353 353 354 354
322 324 324 323 323 321 318 317 317 318 323 327 321 317 318 319 319 319 319 319 318 319 318 316 317 316 315 316 317 319 320 319 320 320 320 321 322 322 323 323 322 322 324 323 322 322 319 318 323 324 323 325 325 324 324 325 325 322 319 322 327 329 329 326 323 324 326 326 327 328 329 333 333 337 346 349 347 347 345 346 351 354 353 351 351 352 353 354
324 324 322 322 321 320 318 317 317 321 325 324 319 318 319 319 319 320 320 320 319 320 319 317 317 317 317 316 316 319 319 317 319 320 319 320 321 321 322 322 322 322 324 323 322 324 322 318 321 324 323 324 325 323 322 323 326 324 322 325 326 321 321 323 323 324 326 326 326 324 325 326 328 334 345 349 349 349 347 347 350 351 352 353 352 352 352 353
323 324 323 321 320 320 318 317 319 323 325 322 319 318 319 319 319 320 320 320 320 320 319 318 317 318 318 317 317 319 319 318 319 319 319 320 320 321 322 321 322 322 323 324 323 324 325 319 318 323 324 323 323 322 319 320 323 325 325 326 325 322 321 322 323 325 324 323 324 324 323 327 335 342 346 349 353 352 348 350 349 349 351 353 354 353 353 353
322 324 323 321 320 319 317 319 322 324 321 320 320 319 318 319 320 319 319 320 320 319 319 319 318 318 319 319 319 319 319 319 320 320 320 320 319 320 322 321 321 323 323 324 323 323 325 321 317 322 325 321 321 321 320 321 322 321 320 321 322 322 323 323 323 324 323 321 322 323 323 330 345 355 355 353 354 352 351 352 351 352 353 353 354 354 353 353
324 322 322 320 320 319 319 321 323 322 320 319 319 319 318 319 319 320 319 319 320 320 319 320 320 319 319 319 319 319 320 320 321 321 320 321 320 319 321 321 321 322 323 323 323 322 323 322 318 319 320 319 320 323 323 323 324 322 320 320 321 322 320 320 320 321 322 321 321 321 323 333 349 355 355 355 353 354 354 354 354 354 353 352 354 353 352 353
323 322 322 320 319 319 320 322 321 320 321 319 318 318 318 319 319 318 319 319 320 320 320 320 320 320 320 320 320 320 320 320 320 321 320 320 321 319 320 322 322 322 323 322 323 324 324 324 320 318 320 321 323 325 324 324 325 325 323 323 324 323 320 316 316 319 320 320 322 320 321 334 350 351 351 355 354 356 356 354 356 353 353 354 354 353 353 353
324 322 321 319 319 319 321 322 319 320 320 318 318 318 318 319 320 319 319 319 320 320 320 320 320 320 321 320 321 320 320 320 319 320 320 320 321 320 320 321 321 322 323 322 323 324 324 324 321 319 322 324 324 324 325 325 325 325 325 325 324 322 322 321 319 321 319 318 321 319 319 332 348 351 354 356 355 357 356 354 356 354 353 355 354 355 355 354
324 322 321 319 318 320 321 321 320 320 319 319 320 319 318 318 319 319 320 319 320 320 320 320 320 320 320 320 320 321 319 319 319 320 320 320 320 320 321 321 321 323 322 323 325 324 322 323 322 319 319 321 322 322 323 323 323 324 325 325 325 323 324 324 322 323 320 318 320 318 319 334 348 352 355 355 354 355 356 356 355 355 354 354 355 356 355 353
322 319 321 319 318 319 320 321 321 320 319 319 319 318 318 319 318 319 320 320 320 321 320 320 320 320 321 320 320 320 320 319 319 319 320 320 320 320 321 320 321 322 323 323 325 324 322 324 324 320 318 318 318 319 320 321 322 323 324 325 326 325 324 323 321 319 317 320 322 319 323 339 351 350 352 353 352 354 355 356 356 356 356 355 356 357 357 356
323 321 321 320 319 320 319 319 319 320 319 319 320 318 318 319 318 318 319 319 320 321 320 321 321 320 320 320 320 320 320 319 319 320 320 320 320 320 321 320 320 322 322 322 323 324 324 324 325 323 321 320 321 322 325 324 322 320 321 323 325 326 326 325 321 319 319 321 321 322 329 338 344 349 352 352 352 352 353 355 356 356 357 357 358 357 357 358
323 322 322 320 320 320 319 319 318 319 319 319 320 319 318 318 318 318 318 319 319 320 321 320 320 320 320 320 320 320 319 320 319 320 320 319 320 320 320 321 320 320 320 322 323 323 323 322 324 325 324 324 324 325 326 325 323 321 320 322 325 326 327 325 320 321 325 321 319 328 334 331 335 345 349 348 350 352 352 354 355 356 356 357 357 356 354 355
322 323 323 321 321 321 319 319 320 319 318 318 319 318 318 318 318 318 318 318 319 319 321 321 320 320 321 321 321 321 321 321 319 320 321 320 320 320 319 320 321 320 320 322 323 323 322 321 322 323 323 323 325 324 325 325 325 325 325 324 326 326 325 324 322 324 327 322 322 332 335 331 337 344 344 346 350 350 351 353 354 355 356 355 356 355 355 355
321 322 322 319 321 323 320 318 319 319 318 319 319 318 319 319 318 318 317 317 319 318 320 322 320 319 321 320 322 323 323 321 321 321 322 321 320 320 319 320 320 321 321 321 323 324 322 321 323 324 322 323 324 324 325 325 325 325 326 327 327 328 326 325 325 325 327 327 328 332 334 338 345 346 344 346 347 349 351 352 353 354 354 354 355 355 355 355
327 328 325 321 320 321 321 318 318 320 318 319 319 318 318 318 318 318 316 317 320 319 318 320 320 319 321 321 322 323 323 323 323 322 322 322 321 320 320 320 320 320 321 321 322 324 322 321 324 325 321 321 323 324 324 324 325 324 325 327 328 327 327 327 329 330 330 331 331 330 334 343 349 348 347 347 347 348 350 351 353 353 353 353 354 355 354 354
329 329 326 326 324 320 320 320 319 320 319 319 321 319 318 319 318 318 317 317 319 320 319 320 320 319 320 321 321 322 321 322 323 322 321 321 321 321 321 321 320 320 321 321 322 323 322 322 323 323 320 319 321 323 323 323 323 323 324 328 329 328 329 330 332 334 332 332 332 330 334 343 348 348 348 348 347 348 349 351 353 352 352 353 352 353 354 353
329 329 325 325 325 321 320 321 319 319 320 320 320 320 319 320 319 317 319 319 318 319 319 319 320 320 321 321 321 320 321 321 321 320 321 320 320 321 321 321 321 321 321 321 321 322 322 322 322 321 319 318 320 322 322 322 320 319 322 327 330 330 331 333 335 336 335 335 335 333 337 345 347 346 345 346 346 348 349 351 351 351 351 351 351 352 352 351
Wind_Speed
9 9 9 10 10 9 9 10 10 9 9 8 8 8 8 8 8 8 8 8 8 8 8 7 7 7 7 7 7 7 8 8 8 8 8 6 8 11 10 9 10 10 11 11 10 11 12 11 11 10 10 10 9 8 5 4 5 6 4 2 2 1 2 2 2 6 12 13 12 14 14 14 14 13 14 13 13 14 14 13 11 12 16 20 24 25 25 24
8 8 9 9 10 10 10 10 10 10 9 9 8 8 8 8 8 8 8 8 8 8 8 7 7 7 7 7 7 7 7 6 7 9 10 9 9 10 10 10 10 11 12 13 14 13 12 11 10 10 10 9 8 5 1 3 4 5 3 2 2 3 5 4 5 7 11 13 13 16 17 15 15 16 15 14 14 15 14 14 14 18 22 23 26 25 24 24
8 8 8 9 10 10 11 11 11 10 10 9 8 8 8 8 8 8 8 9 8 8 8 7 7 7 7 7 6 6 5 6 9 9 10 10 11 10 10 11 11 12 13 13 14 13 11 9 9 10 11 9 7 3 2 3 3 5 5 2 1 6 8 8 8 8 11 16 15 16 16 16 17 17 15 14 15 14 13 15 17 21 23 25 25 24 24 22
7 7 8 8 10 11 12 13 12 12 11 10 9 8 8 8 8 8 8 9 9 8 8 7 7 7 7 6 5 5 5 7 5 5 7 8 10 10 9 11 11 12 13 12 13 12 10 9 9 10 11 9 6 5 4 2 2 3 3 2 3 7 9 7 7 11 15 17 15 15 15 15 16 14 14 16 14 11 13 16 19 22 25 26 26 24 23 22
6 6 7 8 10 11 13 14 14 13 12 11 10 9 8 7 7 7 8 8 8 8 7 7 7 7 7 6 5 3 5 4 3 2 7 7 9 9 9 11 11 13 15 12 12 12 11 10 10 11 11 8 4 5 3 3 1 1 3 3 2 7 8 6 8 11 14 15 14 14 13 14 15 13 14 15 10 8 13 16 19 23 25 26 26 24 22 21
6 6 7 8 10 11 13 14 14 14 14 12 11 10 8 7 7 6 7 7 8 7 7 7 7 7 7 5 4 2 4 2 4 3 8 7 9 8 9 11 12 15 15 12 13 12 12 11 11 11 9 7 5 4 2 2 3 2 3 3 4 9 10 8 11 11 12 15 14 13 13 15 15 13 11 11 10 11 13 16 20 23 24 25 24 23 22 21
5 5 6 8 10 12 13 13 14 14 15 14 12 10 9 7 6 6 6 7 7 7 6 6 6 6 6 5 3 2 8 3 5 5 6 6 7 7 10 13 14 16 16 14 15 13 12 12 13 10 7 5 5 4 2 3 7 6 2 5 8 11 11 10 12 12 12 13 12 13 15 15 15 13 10 11 14 14 15 18 21 23 23 24 23 22 21 19
5 5 6 8 10 12 13 14 14 15 15 15 13 11 9 7 6 5 5 6 6 7 6 6 6 5 5 3 3 7 10 1 4 4 4 5 6 8 13 15 16 17 16 16 16 13 12 13 13 9 6 5 4 4 4 4 9 8 6 9 10 12 12 11 12 11 11 11 11 12 13 14 14 13 11 13 15 15 17 21 22 23 23 22 21 21 20 19
4 4 6 8 10 12 13 14 14 16 16 15 13 10 8 5 4 4 4 4 6 7 5 5 5 4 4 1 5 9 4 4 3 5 3 4 6 10 14 16 17 16 15 16 15 14 12 12 12 8 5 5 5 4 3 2 3 6 11 14 12 14 13 11 12 11 9 6 8 9 10 14 15 12 11 13 16 17 19 22 23 23 22 21 20 20 19 18
4 4 6 8 9 12 13 14 15 16 15 14 12 9 6 4 3 3 2 3 5 6 5 4 4 4 3 2 8 7 6 6 2 2 2 5 8 11 14 15 16 15 15 15 16 15 13 11 9 6 7 8 6 4 2 2 4 4 12 17 14 14 13 12 12 11 9 6 6 7 8 14 13 6 8 13 16 18 20 23 23 22 21 20 19 19 18 17
4 4 6 8 9 12 13 14 15 16 15 13 10 7 5 3 3 3 2 3 4 6 5 3 3 3 2 4 12 4 7 4 1 1 2 7 9 12 13 13 15 15 14 15 15 15 14 10 7 7 6 5 5 4 3 2 6 7 10 14 13 11 11 12 11 10 9 6 6 6 5 10 8 5 8 16 17 17 21 23 23 21 20 19 19 18 17 17
4 5 7 8 10 12 13 14 14 14 13 11 8 6 5 5 4 4 4 4 4 5 4 3 3 2 2 7 11 2 6 2 4 4 6 9 10 11 11 12 13 14 13 13 15 13 13 9 7 11 6 5 6 2 3 4 6 9 10 9 10 9 8 10 9 9 7 6 10 10 6 8 6 6 13 17 17 18 20 22 22 21 20 19 19 18 17 17
4 5 6 9 10 12 13 13 13 13 12 9 7 7 6 6 6 5 5 4 4 4 4 3 3 3 5 6 3 1 2 3 6 7 9 9 9 9 9 11 11 12 11 12 13 11 11 8 8 12 9 9 7 2 2 5 5 8 8 7 7 6 6 8 7 7 6 6 10 9 5 7 7 10 14 16 18 19 19 21 21 21 20 20 19 18 17 16
4 5 7 8 10 11 12 11 12 11 9 7 8 8 8 7 6 6 5 4 4 4 4 4 3 2 6 4 1 3 6 7 7 9 9 9 9 9 10 11 9 9 10 11 10 9 10 8 9 11 11 12 7 3 5 6 6 5 4 6 5 3 6 8 8 9 7 6 8 6 3 7 8 12 14 16 19 19 19 20 21 21 21 20 19 18 18 17
5 5 7 8 10 10 10 10 11 9 7 7 8 8 7 6 5 5 5 5 6 5 6 5 3 2 8 5 2 5 9 10 8 9 9 9 10 9 11 11 9 8 8 8 8 8 9 8 10 11 11 11 8 6 8 7 6 3 1 4 5 2 5 8 8 11 7 6 9 6 4 7 8 12 15 16 19 19 18 19 20 21 20 20 19 18 18 17
5 5 7 8 10 9 8 9 9 7 6 8 9 8 7 6 4 3 5 7 7 6 5 5 4 5 8 2 6 7 8 9 10 10 9 9 8 9 11 10 9 9 8 6 6 8 9 10 11 12 10 8 8 8 7 6 6 5 4 4 4 4 6 6 7 10 7 7 11 7 4 7 6 12 15 15 17 18 18 19 20 20 21 20 19 19 18 17
5 5 7 8 8 7 7 8 7 5 6 8 9 8 7 6 3 2 4 7 9 8 5 3 2 7 7 0 6 9 9 9 11 10 9 7 7 10 11 10 10 10 9 7 6 8 10 11 10 10 10 8 8 8 7 7 6 6 7 3 4 4 6 7 7 10 11 10 11 8 6 7 7 12 14 14 16 16 16 18 20 20 21 20 19 19 18 18
6 5 7 8 7 5 6 7 6 5 6 8 9 9 7 6 3 1 3 7 9 8 4 2 4 6 4 7 8 9 10 9 10 10 9 7 7 10 11 10 10 11 10 9 9 10 11 12 10 8 8 9 8 9 7 6 6 4 5 3 3 2 5 8 8 10 14 12 11 10 8 8 9 11 13 14 15 16 16 17 19 21 21 20 19 19 18 18
6 5 7 7 6 4 4 5 5 5 6 8 10 11 9 6 2 2 2 4 5 5 2 4 6 3 3 8 7 8 9 10 11 10 9 8 9 11 10 9 11 12 12 9 10 13 12 10 10 7 8 10 9 10 8 4 9 3 6 3 1 4 5 5 9 12 15 11 11 11 8 9 11 10 10 14 15 15 16 16 18 20 21 20 19 18 19 18
5 5 7 6 4 2 3 4 4 5 6 7 11 12 8 5 3 4 1 6 8 6 3 3 5 2 3 7 7 8 10 10 10 10 10 10 10 11 10 10 12 12 11 8 9 13 13 9 9 9 11 11 11 13 8 4 10 7 6 4 1 4 5 3 7 14 15 10 10 11 9 9 12 10 11 15 16 16 16 17 18 19 20 21 20 19 19 18
5 5 6 5 3 2 2 3 4 4 5 7 10 11 6 8 5 3 4 7 7 3 4 3 4 5 1 5 6 8 11 10 9 10 10 10 11 11 11 12 11 9 11 10 9 11 11 10 10 12 13 12 14 13 5 4 10 8 4 7 1 1 4 5 7 13 14 8 8 11 10 9 9 10 14 15 14 16 17 18 19 20 21 20 20 19 19 18
4 5 6 5 3 2 2 3 4 4 5 6 8 8 6 10 8 7 9 6 4 2 4 2 3 4 2 4 5 8 11 10 10 11 11 11 13 12 11 12 10 8 11 11 8 9 10 11 12 15 13 8 11 9 5 9 9 5 5 6 5 2 4 4 7 12 12 3 6 12 10 9 8 8 11 13 14 16 18 19 19 20 21 20 20 20 19 18
4 5 5 5 3 2 3 4 5 5 6 6 7 7 6 7 7 6 9 8 2 3 4 5 5 6 7 6 7 10 12 10 11 12 11 12 14 12 9 12 11 9 11 11 9 8 8 11 14 14 11 6 7 6 7 11 8 5 7 6 4 5 6 3 7 11 10 4 5 11 7 6 8 7 8 10 14 15 13 14 18 20 20 20 20 19 19 19
3 4 4 5 3 2 3 4 6 7 7 8 8 7 6 6 8 7 9 8 3 5 2 4 3 4 5 4 9 14 12 9 11 12 12 14 13 10 9 11 11 10 10 11 12 10 9 11 15 14 10 8 10 8 10 9 7 9 8 4 5 7 6 5 3 5 6 6 5 9 6 4 7 8 7 7 10 9 5 6 12 18 20 19 19 19 19 19
3 4 4 5 3 2 5 6 6 5 6 8 6 5 6 7 7 7 9 6 7 6 4 6 3 2 4 4 10 12 8 7 10 11 13 14 12 9 9 12 11 9 10 12 13 11 9 7 12 14 12 10 13 10 11 9 8 10 7 6 8 8 6 7 8 5 2 3 7 8 5 3 6 9 9 6 5 8 8 9 13 17 18 19 20 20 20 19
2 3 3 4 4 4 6 5 3 5 7 5 3 4 6 6 7 8 8 5 6 4 5 6 2 3 5 7 11 10 8 7 9 10 12 11 9 7 8 10 9 8 10 13 9 8 8 5 5 9 10 12 13 10 11 10 10 7 6 7 5 4 5 7 9 7 3 2 6 8 5 2 5 8 9 9 8 10 12 15 19 18 17 19 20 20 20 20
2 3 3 4 5 5 7 5 4 8 8 2 4 6 5 7 8 6 6 4 5 2 3 4 1 3 5 9 13 8 4 9 10 9 10 10 8 7 7 7 8 8 8 10 8 7 7 8 7 8 9 11 11 9 8 9 10 2 5 4 6 6 6 5 7 6 5 4 4 8 8 2 3 8 10 12 12 13 13 14 17 17 18 19 20 20 21 20
1 2 3 4 5 6 6 6 6 9 8 4 6 7 6 9 7 4 7 0 6 0 0 5 3 2 4 9 10 6 4 9 9 9 10 9 9 9 8 7 9 7 7 9 8 6 7 6 10 12 11 9 9 11 7 7 11 2 5 3 5 8 8 5 7 6 5 6 4 9 11 4 2 6 9 12 12 13 14 14 14 16 20 20 20 22 22 21
1 2 3 4 5 6 7 8 7 7 7 7 8 7 7 9 6 6 6 3 3 2 2 5 4 5 8 10 8 6 6 7 5 9 11 9 9 9 6 6 10 7 8 12 9 5 8 9 11 11 12 9 10 13 9 7 10 2 5 5 4 6 7 6 7 6 4 5 4 8 11 5 2 4 8 10 10 13 13 12 13 18 22 22 22 23 23 23
1 2 3 4 5 7 10 10 6 6 9 10 10 8 7 6 6 6 0 4 1 3 5 5 5 7 11 11 8 9 9 4 5 10 10 7 9 10 5 3 9 6 7 14 12 2 3 5 6 8 11 9 10 14 10 8 9 5 3 6 7 6 7 6 5 5 5 7 5 9 10 8 3 4 7 9 9 13 12 11 14 18 21 22 23 24 24 24
1 1 2 4 5 7 10 9 5 8 13 14 11 8 8 7 7 4 6 4 0 5 6 5 6 7 11 8 5 9 9 7 7 10 8 6 9 10 6 3 5 5 6 10 10 3 2 3 4 7 11 9 8 12 10 7 10 7 4 7 6 6 6 3 4 5 5 7 4 9 9 11 6 4 9 9 8 13 14 13 16 18 21 23 24 24 24 24
0 1 2 5 6 7 8 8 8 12 14 13 9 7 9 5 3 2 7 3 3 2 3 5 6 7 8 6 5 8 8 6 8 10 8 8 7 8 9 6 4 6 7 8 9 7 7 8 8 9 12 10 7 7 7 6 8 9 6 8 7 5 5 5 5 6 5 7 5 6 7 8 3 3 11 13 10 13 17 17 20 23 25 26 24 25 25 24
1 1 3 5 6 7 9 10 11 13 13 9 7 9 9 2 3 3 4 1 1 4 2 4 3 3 3 6 6 6 5 5 8 10 8 9 7 8 10 5 6 9 6 7 9 8 7 8 10 10 10 11 10 7 6 7 9 11 8 8 7 5 6 7 7 6 5 8 6 5 5 5 4 4 9 14 14 17 21 21 23 27 27 26 25 26 26 25
1 2 4 5 7 8 10 11 11 13 11 8 7 8 6 2 3 0 3 7 5 3 2 2 2 2 3 4 4 5 3 5 7 9 7 7 6 6 8 3 6 7 5 6 9 8 8 8 11 12 9 12 14 12 9 6 7 11 10 9 9 7 6 6 6 6 6 7 5 4 2 0 4 4 6 9 13 18 21 20 21 25 26 24 23 24 25 26
1 2 4 6 8 9 9 9 10 13 11 8 8 6 2 4 4 2 5 5 1 3 4 2 5 7 6 1 4 6 6 2 5 6 6 8 6 3 6 5 5 7 7 6 6 7 9 7 11 15 11 13 15 15 14 10 6 9 9 10 10 7 5 6 6 7 6 7 5 5 2 5 5 6 10 12 13 16 20 19 19 23 27 25 22 22 24 25
0 2 3 4 6 8 9 8 10 12 11 10 7 1 3 5 5 5 5 4 5 3 3 5 7 7 5 4 4 8 6 3 5 7 6 8 7 3 3 3 3 8 7 3 3 6 8 3 11 14 10 9 13 15 14 12 7 6 9 11 9 6 6 8 8 7 8 7 4 4 2 6 6 4 7 12 13 13 17 19 22 23 28 28 25 24 24 24
2 3 2 1 3 7 7 7 9 9 11 11 3 4 3 3 5 6 5 5 3 2 5 4 3 5 2 5 5 7 6 4 6 7 5 5 5 3 2 3 2 7 8 5 4 5 7 3 10 12 9 7 11 14 15 16 12 5 6 10 10 8 8 7 6 6 8 7 5 6 7 5 6 3 2 6 8 10 13 17 22 23 24 27 26 26 26 23
5 6 5 1 3 5 4 5 8 9 12 8 2 2 3 4 6 6 6 5 3 5 8 2 1 4 3 3 5 7 6 4 5 6 4 5 4 2 4 4 5 5 10 8 5 4 5 4 8 11 10 10 12 12 12 16 17 12 7 4 7 9 8 6 5 6 7 7 5 7 9 7 4 5 8 8 7 9 11 13 18 20 20 23 24 25 26 24
7 9 6 3 2 4 2 4 9 12 11 4 3 1 2 4 5 5 6 5 4 5 6 3 1 4 4 1 2 5 4 3 5 5 4 4 5 3 4 3 5 5 8 10 7 3 4 5 5 8 9 10 11 10 9 11 14 15 10 5 6 7 6 7 6 6 6 6 5 6 8 2 2 2 8 12 9 7 10 11 12 16 19 20 21 22 25 26
9 10 4 5 2 3 3 8 13 11 5 2 3 2 2 3 3 4 5 5 4 4 4 3 3 4 2 1 1 2 3 4 5 3 4 3 3 6 2 2 1 2 3 8 9 4 4 6 3 4 6 8 8 8 10 9 10 11 9 7 8 7 5 6 7 7 7 7 5 5 5 2 5 5 2 11 8 5 10 11 11 13 16 18 17 20 24 24
11 8 5 5 3 4 8 12 9 6 1 3 2 4 4 5 5 4 2 4 3 3 3 4 4 3 1 0 1 1 2 2 3 3 4 4 1 4 3 2 4 3 3 7 8 4 4 6 6 5 5 6 9 11 13 13 10 10 9 9 9 7 7 7 7 7 7 7 7 6 4 2 4 2 2 7 6 5 8 11 14 15 16 18 18 21 24 24
12 5 7 4 3 5 11 9 2 3 1 4 2 4 2 4 5 3 2 3 2 1 2 2 3 4 2 1 0 2 2 2 3 3 4 3 4 6 3 1 4 5 4 5 4 1 3 5 7 7 5 5 8 12 15 15 9 7 10 11 10 8 8 8 7 7 7 8 8 7 4 3 4 1 2 4 5 6 7 8 15 18 15 14 18 21 24 26
9 1 5 1 3 7 11 5 2 2 3 4 1 1 1 3 4 4 3 3 3 2 2 1 2 4 2 2 3 1 2 2 2 2 2 5 5 6 3 2 4 5 6 5 0 4 2 5 6 7 5 3 4 6 8 10 7 8 10 10 10 11 10 9 8 6 7 8 7 6 5 3 6 3 4 8 7 7 6 5 11 19 16 13 14 18 21 24
6 1 3 3 4 8 9 3 2 2 4 1 3 3 2 3 6 6 5 5 4 3 2 3 3 2 2 2 4 2 1 2 1 1 0 3 4 4 3 2 5 5 3 5 5 2 3 5 4 6 6 6 6 5 5 8 8 8 8 8 11 14 14 12 10 7 8 10 10 9 5 3 5 3 4 8 8 7 7 5 7 14 16 13 13 16 20 22
5 2 2 4 5 7 6 4 3 2 4 2 1 3 3 4 4 4 4 4 5 5 3 3 2 1 1 2 3 0 1 3 1 1 1 2 5 3 2 2 4 5 4 8 9 5 4 4 4 6 7 7 6 4 4 7 8 7 10 12 14 14 13 10 7 8 8 7 10 8 1 5 5 4 4 7 8 8 8 7 7 9 11 13 13 14 16 19
7 5 4 5 6 5 1 2 4 2 3 3 1 0 2 3 6 1 4 3 4 5 3 2 1 2 1 2 3 2 2 3 0 1 1 1 3 3 3 2 2 4 5 4 6 6 5 4 4 6 8 6 4 5 7 8 8 12 14 15 11 8 10 10 7 8 7 5 9 7 2 6 6 5 4 5 6 8 8 8 9 9 9 10 12 13 14 16
8 4 0 2 3 3 3 3 3 1 2 1 0 1 2 1 3 2 1 2 3 4 3 2 2 2 1 2 3 2 2 3 0 2 2 3 1 2 1 4 1 3 1 5 6 5 5 5 5 7 9 7 4 5 9 10 10 12 13 13 9 9 13 13 9 8 7 7 8 4 2 6 7 7 7 5 4 6 8 8 9 10 9 8 9 12 14 15
6 2 2 1 2 2 1 2 1 1 1 1 1 1 3 1 1 1 2 2 2 3 3 1 1 1 0 1 3 1 1 2 1 2 2 3 3 2 3 4 1 1 5 8 4 2 5 5 6 7 8 9 8 7 8 8 7 6 6 6 8 11 14 13 13 14 10 8 5 7 8 5 0 5 9 9 5 5 7 8 8 10 10 9 9 11 12 13
5 1 1 3 4 3 3 3 2 1 1 2 1 2 2 1 2 2 2 2 1 1 2 2 0 1 1 0 2 1 1 1 1 2 2 2 3 2 2 3 4 5 6 4 1 1 4 4 5 7 7 9 9 7 7 8 6 5 7 6 7 10 11 11 14 14 10 8 8 8 7 5 9 5 4 8 7 6 7 9 9 9 10 9 10 11 10 10
6 5 0 4 5 2 1 2 3 3 2 0 2 1 1 2 2 3 1 4 3 1 2 1 2 2 3 2 1 1 3 2 3 2 1 4 2 2 2 1 4 7 6 5 2 0 2 2 3 7 7 8 9 8 8 9 7 5 6 7 7 9 10 9 9 9 8 8 10 11 5 5 7 4 4 6 6 8 8 8 8 8 9 10 11 12 11 9
8 6 3 4 3 2 3 4 4 3 3 3 2 1 1 0 2 2 2 4 5 3 2 2 1 1 1 3 3 4 4 1 3 3 1 4 2 0 1 0 3 6 5 4 4 2 3 3 4 6 7 6 6 5 5 7 8 8 4 2 4 4 5 5 3 4 5 7 9 10 4 4 4 2 5 5 5 7 9 9 9 7 7 8 9 10 12 11
7 5 4 5 3 2 4 5 4 3 1 2 4 1 1 2 1 2 1 1 0 1 3 4 4 3 0 4 4 4 4 2 2 2 1 3 2 1 1 1 2 4 4 4 4 3 3 4 4 5 6 5 5 5 5 7 8 7 5 2 4 3 2 1 1 2 2 4 5 5 1 4 1 2 1 4 4 6 8 9 9 9 8 8 10 12 13 13
Wind_Direction
348 347 347 348 348 348 346 341 336 332 324 319 314 310 310 311 314 316 316 313 311 311 310 311 315 317 318 318 316 311 303 296 294 284 278 266 245 242 241 234 221 214 206 192 188 205 212 219 225 221 224 226 230 240 239 251 273 270 274 352 335 29 105 202 177 117 122 138 141 138 142 137 132 129 128 133 130 124 124 123 124 125 121 121 128 136 139 142
349 349 350 349 350 352 353 351 346 339 331 323 313 308 306 304 309 312 316 315 310 309 307 311 316 318 319 319 321 318 308 300 292 275 265 250 241 242 230 223 214 203 192 187 197 205 210 219 218 216 223 232 229 222 278 269 277 304 325 348 306 114 127 147 126 123 131 139 140 136 141 141 136 138 142 141 134 135 130 125 125 119 116 122 131 138 140 144
351 352 352 351 352 353 354 356 353 347 340 330 319 308 302 301 303 305 311 314 314 311 308 311 315 318 320 324 324 323 319 294 285 261 248 244 234 235 227 214 205 198 188 188 202 206 216 226 218 220 228 236 234 228 282 259 272 326 331 322 43 119 125 111 128 170 150 139 140 135 141 142 138 142 146 144 141 143 136 132 132 126 127 132 136 141 143 147
350 352 352 354 354 353 353 352 350 349 345 338 329 314 303 299 297 300 306 312 318 313 311 312 315 320 319 328 326 330 324 283 265 210 231 247 226 225 223 205 198 191 179 191 209 213 226 237 227 228 237 243 250 252 269 354 346 303 321 1 75 125 129 108 136 160 143 138 137 131 137 137 138 142 144 146 143 143 141 141 141 136 137 139 141 144 147 150
349 350 352 354 354 352 349 347 346 345 346 345 338 326 311 299 293 294 297 306 317 315 315 315 317 319 319 330 325 329 312 273 130 146 263 254 219 215 211 195 193 180 171 195 215 217 230 235 229 230 243 254 261 254 269 54 110 286 28 55 114 132 126 121 129 136 135 133 134 137 138 135 138 137 141 149 144 137 142 144 142 141 142 142 144 145 149 152
344 348 351 354 352 349 346 345 346 343 346 347 343 337 321 304 295 290 292 300 313 318 317 318 320 318 324 328 320 319 281 287 74 303 273 237 211 201 189 182 183 176 174 203 214 215 228 227 226 228 240 255 242 251 301 150 147 56 51 88 121 119 119 131 128 130 136 133 138 142 136 136 135 127 134 144 133 132 139 142 141 141 143 142 143 146 150 154
342 348 351 353 349 346 345 345 346 344 346 346 345 341 329 314 299 290 290 295 310 323 322 322 320 320 331 323 318 271 248 274 36 301 264 224 209 179 173 174 178 177 183 211 211 211 222 219 225 228 240 256 234 241 266 177 106 77 105 116 110 110 118 132 128 134 136 130 135 134 134 138 132 124 126 125 125 134 138 138 140 141 142 142 144 148 151 153
342 348 352 350 346 345 345 345 346 345 343 343 343 340 334 323 309 304 295 297 313 323 327 326 322 329 335 321 298 259 233 225 22 295 266 221 194 166 170 171 176 180 192 212 207 209 219 220 226 229 245 259 238 224 227 178 108 106 132 121 114 114 123 132 129 132 129 122 121 125 134 133 127 124 118 121 129 135 137 138 141 142 143 144 146 148 150 153
338 348 351 346 346 346 344 344 343 343 341 337 337 336 333 328 321 319 303 304 315 322 334 328 327 335 328 346 287 263 190 74 323 281 280 207 179 167 171 171 176 183 199 209 206 212 217 222 226 227 255 260 253 242 226 215 141 131 130 135 133 123 126 132 129 121 110 93 94 115 131 127 129 129 116 125 135 135 137 139 142 144 144 147 148 149 150 153
338 347 347 344 345 346 345 342 341 341 338 334 334 333 334 344 350 344 325 318 319 324 334 329 339 336 327 335 283 260 107 66 292 287 282 191 171 165 167 175 181 188 202 204 206 213 215 224 228 231 264 257 248 253 243 173 176 155 128 133 129 122 130 134 127 119 109 84 97 125 130 130 129 118 123 138 141 139 141 142 145 147 147 148 148 149 152 154
339 342 344 344 344 346 345 341 342 342 340 339 338 341 354 20 25 20 17 343 331 327 329 342 339 325 344 282 274 270 82 65 126 122 198 158 159 163 168 185 188 192 201 201 207 213 219 237 241 226 253 258 223 222 239 151 142 142 125 121 113 114 128 131 126 132 129 99 131 144 115 131 116 67 139 147 145 143 144 146 148 149 148 150 150 150 154 156
334 340 342 342 344 347 345 343 347 346 346 347 349 7 25 38 38 38 34 10 354 332 330 347 325 326 328 272 262 300 58 96 135 130 151 143 157 168 175 189 187 197 204 203 209 214 222 245 248 226 253 293 250 219 159 169 150 141 134 125 121 125 124 123 131 150 141 109 154 163 131 139 122 112 146 150 149 144 147 150 149 151 151 152 152 152 157 157
336 337 341 344 346 347 346 348 352 351 353 358 13 32 38 46 49 51 45 31 23 350 348 353 333 334 296 273 243 193 80 137 142 131 141 150 164 174 182 184 187 204 208 207 210 212 220 244 248 231 254 271 262 352 148 185 173 154 142 136 142 149 134 127 140 154 142 129 169 188 155 135 134 144 149 154 155 148 150 155 153 154 153 155 155 156 161 159
343 337 344 345 347 349 349 353 356 356 4 19 35 41 45 51 53 58 54 43 38 12 7 357 347 348 274 274 54 200 164 135 144 138 146 158 159 169 175 179 188 198 203 211 214 209 215 242 254 240 253 261 279 323 226 204 184 170 130 140 158 176 148 144 160 168 164 164 189 216 161 138 142 151 153 160 164 158 156 158 159 158 156 159 159 160 163 162
355 346 347 347 351 353 353 358 359 1 16 32 35 35 39 42 52 69 58 39 29 9 9 357 350 322 258 245 123 169 152 144 156 146 151 154 153 164 167 178 186 182 191 205 209 208 216 237 245 243 241 242 263 261 220 202 180 151 73 171 166 178 157 148 173 186 179 171 198 224 145 143 148 153 160 165 169 169 163 161 164 162 160 162 161 165 164 163
2 351 348 352 355 355 358 2 4 13 30 32 27 24 23 23 40 56 29 19 3 350 2 358 345 292 275 240 124 151 153 158 162 153 156 154 156 164 162 173 179 180 189 190 199 205 217 231 233 244 249 227 230 240 227 207 179 165 207 204 141 174 177 152 184 198 184 164 191 217 149 145 162 161 166 170 171 176 169 164 168 166 164 164 165 168 166 166
4 354 351 354 357 360 3 6 12 29 36 25 14 9 6 5 11 339 347 350 335 328 331 343 297 271 277 170 157 172 161 155 155 156 162 164 168 162 160 169 174 180 186 189 204 203 207 222 227 239 252 244 227 230 234 218 199 190 208 202 120 181 199 160 181 193 182 181 185 193 163 145 163 164 167 174 176 180 174 167 170 170 168 167 169 170 168 169
3 354 349 353 1 4 5 13 25 37 29 13 0 350 338 332 345 299 332 343 325 308 302 216 218 263 234 177 180 167 154 153 158 162 163 165 167 163 167 172 170 174 183 191 198 198 197 206 220 228 230 232 225 229 235 225 237 203 176 206 124 171 234 170 168 186 183 189 181 176 170 148 156 167 171 179 183 185 177 170 173 173 170 170 173 172 170 172
358 353 351 356 6 4 8 20 32 34 18 4 353 342 320 301 269 183 321 324 282 282 312 171 203 301 87 148 151 140 147 152 159 166 165 165 163 167 174 174 177 182 187 188 187 194 194 199 216 224 222 220 219 233 239 241 270 259 135 210 179 141 234 189 157 172 173 180 180 173 166 156 163 171 180 182 187 192 179 170 177 175 172 174 177 175 173 175
355 353 349 359 11 1 8 13 17 21 7 3 350 331 312 302 234 161 170 230 245 290 329 175 216 276 99 134 135 140 150 156 167 169 171 171 166 174 177 178 185 194 203 189 177 190 195 205 214 215 220 218 225 238 238 236 273 279 134 152 287 155 202 205 148 165 176 178 175 172 161 158 166 173 194 192 187 195 183 173 181 178 175 179 180 177 176 177
353 350 349 7 15 342 359 354 353 356 349 2 347 317 326 2 349 7 339 232 214 278 274 262 262 258 179 131 145 158 163 172 177 169 174 176 177 182 177 185 190 195 215 200 174 184 197 217 216 214 221 218 228 238 249 246 256 270 188 154 186 190 181 198 164 168 188 189 156 170 168 154 165 181 191 189 190 196 186 179 182 180 179 182 182 179 178 176
350 349 352 13 11 322 313 318 329 336 332 346 337 314 351 14 352 342 326 275 146 116 245 215 227 226 183 187 190 183 180 179 173 170 177 182 193 194 173 191 205 192 205 204 185 181 197 225 218 211 220 228 239 240 244 253 249 258 243 195 183 146 119 187 209 186 187 187 148 172 179 156 168 203 189 182 197 199 186 183 184 181 181 184 185 180 178 176
350 350 357 15 6 305 281 297 314 316 323 323 312 314 345 357 330 321 303 285 121 124 199 178 197 181 172 197 187 195 201 178 167 171 178 190 201 207 188 195 211 200 199 201 197 194 198 220 221 209 206 223 251 247 231 247 254 230 232 232 185 156 134 152 233 206 165 120 150 170 181 162 167 202 204 199 208 201 189 188 186 184 185 186 187 181 178 178
354 351 4 15 358 303 281 290 300 307 329 319 295 304 330 330 322 322 296 279 121 110 166 156 206 183 157 173 174 200 211 170 170 171 176 196 194 201 212 206 213 210 202 202 204 218 213 206 218 205 179 211 233 235 234 237 248 234 226 239 205 194 189 153 199 217 137 110 142 160 169 176 178 192 204 219 223 215 219 216 195 190 188 187 187 183 181 181
356 356 9 9 355 309 289 293 302 311 315 304 290 294 310 318 323 327 297 265 118 107 161 151 199 188 134 172 183 211 230 168 174 168 173 202 195 191 210 209 221 212 191 204 213 226 218 202 223 199 166 215 233 230 235 234 249 242 207 213 228 214 204 169 156 157 144 147 157 170 187 184 188 199 196 190 217 221 211 210 207 197 191 191 188 184 185 184
350 6 4 355 357 329 309 310 322 306 287 283 313 309 306 314 319 328 299 248 117 110 169 152 181 151 151 185 178 208 236 165 148 156 176 208 209 214 217 197 218 229 195 199 220 239 209 174 219 193 172 213 231 235 230 227 254 254 165 178 209 193 200 199 177 161 190 203 164 193 228 163 178 213 207 178 185 210 203 201 203 195 191 195 191 187 188 186
338 18 358 344 352 340 327 327 321 307 301 310 322 309 304 298 308 325 281 218 104 80 169 121 99 109 132 176 178 207 210 130 132 158 184 209 211 224 231 194 206 231 205 191 215 236 192 164 187 200 205 215 221 233 217 215 245 299 84 159 166 177 207 223 221 202 180 158 159 212 228 235 202 212 203 184 188 202 205 205 200 194 195 194 192 192 190 188
335 15 356 344 342 342 335 327 320 316 330 348 311 305 298 293 307 300 265 106 80 281 83 83 105 120 134 172 195 228 131 142 168 164 176 208 210 214 227 213 212 214 195 198 203 173 146 175 206 208 219 222 219 225 207 211 235 272 11 282 192 202 218 225 252 250 190 170 181 210 211 219 213 189 179 180 194 202 204 207 198 196 201 196 193 195 191 190
358 4 354 345 329 333 326 314 312 314 328 325 305 306 297 292 294 251 253 51 77 228 91 98 151 161 163 169 191 209 173 188 191 141 165 206 215 234 256 212 212 201 192 223 227 148 149 196 212 212 221 223 220 226 218 218 237 296 357 282 255 243 236 228 248 272 250 238 226 192 199 212 169 169 175 173 195 204 198 203 201 199 202 197 195 195 191 189
16 359 349 334 323 329 319 309 304 305 312 309 307 309 292 278 262 251 163 70 113 142 138 186 161 149 175 173 175 193 179 147 117 144 172 195 196 224 271 223 220 205 188 229 248 269 129 186 209 225 227 224 225 226 216 222 252 310 336 252 237 234 237 230 242 273 272 261 227 168 192 235 220 171 187 183 195 197 186 191 198 200 202 199 195 195 191 188
8 349 337 324 325 327 315 312 310 302 303 306 312 300 272 249 243 259 71 71 251 123 167 186 134 170 200 179 163 186 175 136 143 170 178 172 181 203 215 202 218 201 187 222 234 220 161 204 232 234 231 241 249 229 200 206 254 268 264 249 232 215 234 237 236 251 248 257 240 140 172 232 236 181 191 194 194 187 183 188 190 193 200 200 197 193 191 188
34 307 322 320 323 324 314 315 314 305 302 304 306 276 258 249 248 49 84 153 227 125 172 144 139 212 211 175 167 177 176 155 165 185 184 179 186 193 198 198 198 198 199 205 200 187 195 208 209 213 224 238 257 234 192 190 240 244 236 242 236 215 234 241 230 233 236 254 251 137 178 226 225 170 183 185 198 195 192 193 187 188 193 197 197 193 191 189
156 297 333 325 321 326 319 316 315 310 309 304 286 259 255 283 35 29 65 117 18 35 76 133 166 245 203 192 182 158 155 144 176 204 197 193 204 186 185 227 246 221 210 200 196 195 194 191 195 200 205 216 228 228 203 191 207 220 226 232 232 220 229 241 233 230 243 244 220 153 212 223 145 152 172 174 194 198 196 196 190 189 190 192 197 194 190 190
205 289 334 331 327 332 324 321 316 308 308 295 269 258 263 42 77 281 40 62 66 80 116 167 195 179 216 229 151 156 182 149 185 211 189 197 229 193 178 232 262 243 244 220 202 197 207 200 194 197 185 190 214 233 242 242 209 210 225 234 240 238 233 245 241 236 256 260 233 167 214 202 134 179 170 177 197 186 183 191 190 190 187 187 196 197 191 191
239 321 341 338 337 335 327 322 306 302 307 287 263 261 303 39 46 8 34 41 34 133 126 196 230 201 201 185 131 199 244 231 197 206 182 195 214 200 192 192 215 245 261 240 208 198 227 221 171 184 191 182 201 226 242 260 239 202 213 232 241 238 226 248 261 263 273 278 266 224 194 75 106 180 166 181 207 184 170 171 177 186 184 183 195 199 195 193
228 342 348 344 329 322 322 317 300 302 302 278 263 300 53 44 16 15 23 336 322 23 126 192 230 226 183 142 164 204 231 256 199 194 194 191 177 175 207 155 182 247 259 262 234 209 231 215 137 169 206 194 201 216 223 245 255 196 202 222 237 243 231 241 252 256 261 262 253 239 214 108 129 192 165 177 195 179 169 165 166 179 183 183 192 196 195 194
228 260 272 305 301 303 313 309 303 302 285 275 305 29 31 51 19 15 13 329 335 315 260 209 217 276 206 157 179 185 195 218 196 194 201 178 141 116 206 144 89 275 283 299 269 238 245 216 142 171 211 205 211 218 214 230 250 245 211 209 218 238 246 256 264 246 244 252 239 228 229 186 173 201 189 195 194 181 183 170 160 170 181 184 189 191 191 193
237 245 234 227 313 304 299 297 301 291 273 272 46 20 315 46 42 21 7 329 292 262 274 274 85 284 255 166 164 166 176 196 198 197 189 170 134 77 252 192 145 242 276 281 263 254 266 240 155 175 205 196 204 220 216 221 235 253 275 230 215 231 230 228 250 248 239 247 250 236 232 219 190 174 171 187 212 195 176 158 153 164 179 187 187 184 186 190
237 240 207 140 320 291 269 282 282 271 264 273 96 129 332 51 63 31 5 329 292 288 300 335 347 265 264 2 125 162 173 197 212 194 167 181 158 147 268 256 156 202 254 260 260 262 262 253 167 176 200 189 189 212 218 207 218 242 271 276 244 247 238 219 219 239 254 254 254 253 242 208 46 274 182 163 184 180 145 147 163 165 173 184 186 181 182 187
244 247 172 98 306 262 243 264 268 266 270 18 39 60 14 11 58 52 5 327 309 319 337 333 279 249 234 22 76 189 198 208 218 171 150 219 176 142 177 312 237 211 218 241 261 272 247 250 217 175 179 182 187 205 220 212 199 214 234 238 230 228 238 246 232 225 242 254 253 258 253 100 56 313 196 129 136 132 127 145 161 162 171 180 183 181 181 185
255 248 111 86 269 246 255 259 263 278 294 89 38 49 35 327 343 45 22 322 319 332 350 333 308 288 219 136 100 204 210 184 186 145 157 213 227 104 101 9 303 282 203 216 237 242 244 254 242 208 180 202 209 197 212 228 215 203 214 225 231 225 221 239 243 233 236 246 248 251 249 104 81 334 49 106 121 123 136 150 148 156 176 178 173 177 183 188
258 246 87 72 258 247 263 264 252 286 332 78 37 44 61 283 309 351 327 302 304 304 331 340 327 322 316 311 249 194 181 127 160 185 166 145 52 51 76 21 305 280 254 231 217 50 329 282 260 243 216 219 213 190 202 226 236 234 223 218 227 233 227 232 238 238 241 239 241 251 251 124 111 141 122 120 127 122 142 158 138 140 162 172 166 171 178 182
261 294 82 95 255 256 265 268 171 236 50 69 260 38 21 297 339 4 0 341 329 330 347 27 357 335 348 300 284 194 123 106 156 191 140 115 81 54 51 1 308 268 267 272 210 63 329 261 257 264 249 203 181 168 198 230 248 252 233 215 223 231 231 241 251 255 254 244 234 241 242 148 127 155 136 120 120 121 140 164 132 130 146 165 164 165 169 174
278 6 99 167 227 257 267 270 181 137 86 131 204 127 104 18 11 358 19 33 2 345 11 40 30 4 20 288 294 22 94 239 225 229 157 117 104 66 46 350 306 279 308 356 3 24 267 254 247 252 241 208 189 169 195 224 227 239 237 216 220 231 233 236 242 246 250 252 248 243 238 142 124 145 133 126 130 129 132 147 131 128 138 151 160 164 167 173
274 221 162 168 211 255 289 343 347 87 115 169 125 117 170 113 65 336 350 36 10 354 4 41 29 315 2 278 272 338 252 262 293 294 297 104 114 92 40 1 322 322 22 10 337 308 272 273 259 246 241 228 219 214 229 227 212 223 242 231 221 228 240 244 243 235 233 257 266 260 219 105 127 155 160 143 135 131 137 146 138 132 135 140 151 157 159 167
267 232 183 171 200 231 300 9 311 333 124 177 150 152 275 83 104 225 316 4 20 6 358 20 336 263 252 257 247 227 256 276 353 146 241 198 131 91 14 316 331 8 22 349 296 278 268 260 250 260 265 264 285 302 290 267 224 209 221 230 231 236 243 246 249 243 238 247 254 251 153 133 140 144 166 159 136 136 144 145 136 133 139 143 146 147 149 160
267 278 148 135 199 211 165 179 241 343 79 221 188 77 302 358 119 150 342 10 4 346 344 18 336 274 247 267 265 244 261 283 285 148 205 264 247 99 297 264 149 79 299 245 234 252 272 253 232 243 251 253 260 264 268 268 247 223 215 220 226 232 236 241 247 255 260 242 240 283 293 208 176 155 165 160 145 150 148 149 144 133 132 137 143 147 152 161
252 306 17 356 283 267 130 124 338 39 110 272 312 256 271 296 73 56 56 58 352 339 353 18 314 279 238 255 273 255 216 271 236 183 218 250 237 201 219 263 332 79 233 231 210 265 282 259 244 245 236 229 223 221 240 252 252 257 259 248 241 234 232 237 242 247 257 250 257 343 332 288 196 142 157 145 150 171 146 141 143 132 128 131 139 149 156 163
250 266 146 208 271 323 50 62 332 282 120 5 307 233 277 341 81 55 7 331 338 20 338 324 59 319 320 225 278 287 99 309 236 181 247 259 232 241 250 267 302 316 289 270 93 1 288 266 257 269 258 230 216 204 218 227 221 240 258 265 273 258 243 241 245 249 263 268 271 294 308 8 33 37 124 128 140 156 138 133 134 133 137 143 145 145 147 151
304 325 326 217 241 264 161 190 248 235 148 137 242 187 312 329 53 83 35 324 343 76 273 279 93 357 351 50 322 27 82 344 334 91 256 282 266 246 260 256 282 296 308 324 15 66 268 253 241 272 274 240 218 205 208 214 203 203 233 249 255 253 247 252 265 275 280 274 267 265 259 69 60 64 100 107 135 143 134 133 132 133 143 149 148 142 140 145
323 326 316 267 245 186 205 219 241 253 206 183 170 123 175 291 38 73 75 356 354 19 346 335 60 272 350 60 28 36 73 332 329 59 308 305 4 239 248 34 292 292 306 328 336 307 273 259 226 242 253 239 234 235 230 232 217 188 166 292 271 244 236 244 276 308 288 278 269 254 232 75 61 107 105 107 149 151 135 129 128 130 143 152 148 137 133 138
330 318 293 270 249 191 228 225 220 250 264 91 75 26 256 99 77 256 222 73 330 13 2 328 299 263 185 79 50 15 24 12 12 40 328 319 351 260 249 268 296 314 320 306 300 287 278 277 248 240 249 240 248 275 289 281 254 197 137 14 335 7 16 297 70 55 298 298 292 263 225 76 37 283 111 130 157 143 125 121 125 124 116 113 116 115 115 119